Regional Weather Roundup
Issued by NWS Charleston, SC

Current Version | Previous Version | Text Only | Print | Product List | Glossary Off
Versions: 1 2 3 4 5 6 7 8 9 10 11 12 13 14 15 16 17 18 19 20 21 22 23 24 25 26 27 28 29 30 31 32 33 34 35 36 37 38 39 40 41 42 43 44 45 46 47 48 49 50

000
ASUS42 KCHS 290728
RWRCHS

REGIONAL WEATHER ROUNDUP
NATIONAL WEATHER SERVICE CHARLESTON SC
300 AM EDT FRI APR 29 2016

NOTE: "FAIR" INDICATES FEW OR NO CLOUDS BELOW 12,000 FEET WITH NO
SIGNIFICANT WEATHER AND/OR OBSTRUCTIONS TO VISIBILITY.

NOT ALL STATIONS ARE QUALITY CONTROLLED. USE DATA WITH CAUTION...
ESPECIALLY DEWPOINT OBSERVATIONS.

SCZ027-030-031-034>040-042>050-290800-
...SOUTHEAST SOUTH CAROLINA...

CITY           SKY/WX    TMP DP  RH WIND       PRES   REMARKS
N CHARLESTON   PTCLDY    68  65  90 SW5       29.91F
WATERFRONT PRK   N/A     71  69  93 VRB2      29.90F
MOUNT PLEASANT FAIR      70  68  94 CALM      29.91F
JOHNS ISLAND   FAIR      68  68 100 CALM      29.92S FOG
PINOPOLIS        N/A     72  68  88 SW9       29.81F
MONCKS CORNER  FAIR      66  63  88 SW6       29.90S
SUMMERVILLE    FAIR      66  66 100 CALM      29.92F
BEAUFORT MCAS  PTCLDY    71  67  87 CALM      29.93F
BEAUFORT ARPT  FAIR      73  66  78 SW7       29.92S
HILTON HEAD IS PTCLDY    73  70  88 SW6       29.94S
WALTERBORO     SUNNY     70  70 100 W5        29.92F
ALLENDALE      FAIR      68  68 100 CALM      29.92S

...SOUTHERN MIDLANDS AND PEE DEE...

CITY           SKY/WX    TMP DP  RH WIND       PRES   REMARKS
GEORGETOWN     FAIR      66  64  94 SW3       29.91S
KINGSTREE      FAIR      68  64  88 CALM      29.88S
ORANGEBURG     CLEAR     72  67  84 W7        29.91S
BARNWELL       FAIR      73  72  94 W5        29.93S
AIKEN          FAIR      64  63  94 SW5       29.95F
MANNING        NOT AVBL
COLUMBIA       CLEAR     71  66  84 W8        29.89F
SUMTER         CLEAR     70  67  90 W8        29.86F
FLORENCE       CLEAR     69  67  93 SW5       29.88S
MYRTLE BEACH   CLEAR     70  63  78 W9        29.90F
N MYRTLE BEACH CLEAR     71  67  87 W7        29.87F

$$

GAZ063-065-086>088-099>101-113>116-118-119-134>141-150-290800-
...SOUTHEAST GEORGIA...

CITY           SKY/WX    TMP DP  RH WIND       PRES   REMARKS
SAVANNAH ARPT  PTCLDY    70  67  90 SW5       29.94F
HUNTER AAF     MOCLDY    70  70  99 SW3       29.92F
FORT STEWART   CLOUDY    70  66  89 CALM      29.93S
STATESBORO     CLEAR     70  70  98 S3        29.94S
SYLVANIA       MOSUNNY   67  67 100 CALM      29.94S FOG
CLAXTON        FAIR      65  65 100 CALM      29.95S FOG

...CSRA...CENTRAL AND FAR SOUTHEAST GEORGIA...

CITY           SKY/WX    TMP DP  RH WIND       PRES   REMARKS
THOMSON        CLEAR     69  69  99 CALM      29.98S
AUGUSTA-BUSH   CLEAR     71  67  87 W7        29.91F
AUGUSTA-DANIEL CLEAR     73  66  78 VRB5      29.93F
SWAINSBORO     FAIR      66  64  94 CALM      29.96R
VIDALIA        CLEAR     68  64  88 CALM      29.95S
EASTMAN        FAIR      71  71 100 CALM      29.98S
HAZLEHURST     FAIR      70  70 100 CALM      29.95S
ALMA           PTCLDY    68  66  93 S3        29.95F
WAYCROSS       FOG       69  69 100 SW6       29.96S VSB 3/4
JESUP          FAIR      70  70 100 CALM      29.96R FOG
BAXLEY         FAIR      68  68 100 CALM      29.95S FOG
BRUNSWICK      CLEAR     72  70  94 W5        29.96S
SAINT SIMONS   PTCLDY    70  69  97 SW6       29.95F

$$

SCZ027-028-034-036>038-045-046-048>050-GAZ119-141-290800-
...LAKE AND SUPPLEMENTAL COASTAL OBSERVATIONS...

STATION/POSITION TIME  TEMP    WIND        PRES    WAVE   SWELL
                       AIR SEA DIR/SP/G            HT/PER HT/PER/DIR
                 (UTC) (F)     (DEG/KT/KT) (MB)    (FT/S) (FT/S/D)
WINYAH BAY       0600   71     230/  5     1012.0S
LAKE MURRAY      0600   73     270/  8/ 11 1012.2S
ACE BASIN NERRS  0645   72     230/  2     1013.0F
FORT PULASKI     0700   73 71  220/  5/  7 1014.0F
SAPELO ISLAND    0700   72     240/  5     1014.0S

$$

ANZ835-935-AMZ111-154-330-350-352-354-370-450-454-472-290800-
...C-MAN AND BUOY OBSERVATIONS...

STATION/POSITION TIME  TEMP    WIND        PRES    WAVE   SWELL
                       AIR SEA DIR/SP/G            HT/PER HT/PER/DIR
                 (UTC) (F)     (DEG/KT/KT) (MB)    (FT/S) (FT/S/D)
BUOY 41004       0650   73 71  230/ 16/ 17 1012.6F   3/ 4   2/10
BUOY 41008       NOT AVBL
FOLLY BEACH CMAN 0700   71     230/  7/  8 1013.2F
CAPERS NEARSHORE 0608   71 70  220/ 10/ 14 1013.0F
FRIPP NEARSHORE  0608   72 71  230/ 14/ 16 1012.9S


STATION/POSITION TIME  TEMP    WIND        PRES    WAVE   SWELL
                       AIR SEA DIR/SP/G            HT/PER HT/PER/DIR
                 (UTC) (F)     (DEG/KT/KT) (MB)    (FT/S) (FT/S/D)
5E ST. MARYS GA  0621      72                N/A     2/10
FRYING PAN BUOY  0700   72 70  230/ 14/ 16 1012.0R
BUOY 41025       0650   71 71  260/ 10/ 14 1011.6F   4/ 5   2/200/ 5
CAPE LOOKOUT NC  0700   69     280/  4/  4 1011.8F
BUOY 41002       0650   71 71  190/ 10/ 12 1014.9    3/11   2/ 50/11
BUOY 41010       0620   75 76  190/ 10/ 12 1015.3F
ST AUGUSTINE FL  0700   72 69  270/  5/  7 1015.1F


$$




USA.gov is the U.S. government's official web portal to all federal, state and local government web resources and services.